Time,TemperatureF,DewpointF,PressureIn,WindDirection,WindDirectionDegrees,WindSpeedMPH,WindSpeedGustMPH,Humidity,HourlyPrecipIn,Conditions,Clouds,dailyrainin,SoftwareType,DateUTC
2013-01-15 00:00:00,62.1,58.9,30.09,NE,45,1.3,1.3,89,0.00,,,0.00,WUHU216HW,2013-01-15 05:00:00,
2013-01-15 00:02:00,62.1,58.9,30.10,North,0,1.6,1.8,89,0.00,,,0.00,WUHU216HW,2013-01-15 05:02:00,
2013-01-15 00:07:00,61.9,59.0,30.10,North,0,1.1,2.5,90,0.00,,,0.00,WUHU216HW,2013-01-15 05:07:00,
2013-01-15 00:12:00,62.3,59.4,30.11,NNW,338,0.9,2.9,90,0.00,,,0.00,WUHU216HW,2013-01-15 05:12:00,
2013-01-15 00:17:00,62.6,59.8,30.11,NNW,338,1.1,2.9,90,0.00,,,0.00,WUHU216HW,2013-01-15 05:17:00,
2013-01-15 00:22:00,62.6,59.8,30.11,North,0,4.7,4.7,90,0.00,,,0.00,WUHU216HW,2013-01-15 05:22:00,
2013-01-15 00:27:00,62.8,59.9,30.11,NE,45,0.9,4.7,90,0.00,,,0.00,WUHU216HW,2013-01-15 05:27:00,
2013-01-15 00:32:00,62.6,59.8,30.11,NNE,23,1.6,4.7,90,0.00,,,0.00,WUHU216HW,2013-01-15 05:32:00,
2013-01-15 00:37:00,61.9,58.4,30.12,NNE,23,1.6,4.3,88,0.00,,,0.00,WUHU216HW,2013-01-15 05:37:00,
2013-01-15 00:42:00,61.4,57.5,30.13,NE,45,1.8,2.7,87,0.00,,,0.00,WUHU216HW,2013-01-15 05:42:00,
2013-01-15 00:47:00,60.5,56.0,30.13,East,90,3.1,4.3,85,0.00,,,0.00,WUHU216HW,2013-01-15 05:47:00,
2013-01-15 00:52:00,59.8,55.3,30.13,NE,45,2.2,4.3,85,0.00,,,0.00,WUHU216HW,2013-01-15 05:52:00,
2013-01-15 00:57:00,58.9,54.4,30.13,NE,45,1.8,4.0,85,0.00,,,0.00,WUHU216HW,2013-01-15 05:57:00,
2013-01-15 01:02:00,58.1,53.6,30.14,NNE,23,3.8,4.0,85,0.00,,,0.00,WUHU216HW,2013-01-15 06:02:00,
2013-01-15 01:07:00,57.6,53.5,30.14,North,0,1.1,3.8,86,0.00,,,0.00,WUHU216HW,2013-01-15 06:07:00,
2013-01-15 01:12:00,57.2,52.7,30.13,North,0,1.1,4.7,85,0.00,,,0.00,WUHU216HW,2013-01-15 06:12:00,
2013-01-15 01:17:00,56.7,52.2,30.14,NE,45,2.5,4.7,85,0.00,,,0.00,WUHU216HW,2013-01-15 06:17:00,
2013-01-15 01:22:00,56.2,51.7,30.14,NNE,23,0.9,3.1,85,0.00,,,0.00,WUHU216HW,2013-01-15 06:22:00,
2013-01-15 01:27:00,55.8,51.3,30.14,ENE,68,1.8,2.7,85,0.00,,,0.00,WUHU216HW,2013-01-15 06:27:00,
2013-01-15 01:32:00,55.3,51.1,30.15,NNW,338,1.6,3.4,86,0.00,,,0.00,WUHU216HW,2013-01-15 06:32:00,
2013-01-15 01:37:00,54.9,50.8,30.15,NNE,23,1.1,4.3,86,0.00,,,0.00,WUHU216HW,2013-01-15 06:37:00,
2013-01-15 01:42:00,54.5,50.4,30.15,NW,315,1.3,4.3,86,0.00,,,0.00,WUHU216HW,2013-01-15 06:42:00,
2013-01-15 01:47:00,54.4,50.2,30.16,North,0,2.5,4.7,86,0.00,,,0.00,WUHU216HW,2013-01-15 06:47:00,
2013-01-15 01:52:00,54.0,49.9,30.16,NNE,23,2.9,5.8,86,0.00,,,0.00,WUHU216HW,2013-01-15 06:52:00,
2013-01-15 01:57:00,53.6,49.9,30.16,NNE,23,2.5,5.8,87,0.00,,,0.00,WUHU216HW,2013-01-15 06:57:00,
2013-01-15 02:02:00,53.6,49.5,30.16,NW,315,2.5,3.4,86,0.00,,,0.00,WUHU216HW,2013-01-15 07:02:00,
2013-01-15 02:07:00,53.3,49.1,30.16,North,0,0.9,3.1,86,0.00,,,0.00,WUHU216HW,2013-01-15 07:07:00,
2013-01-15 02:12:00,52.9,48.8,30.16,NNW,338,2.9,4.3,86,0.00,,,0.00,WUHU216HW,2013-01-15 07:12:00,
2013-01-15 02:17:00,52.2,48.1,30.16,NNW,338,2.5,4.3,86,0.00,,,0.00,WUHU216HW,2013-01-15 07:17:00,
2013-01-15 02:22:00,51.7,47.9,30.16,ENE,68,1.8,4.7,87,0.00,,,0.00,WUHU216HW,2013-01-15 07:22:00,
2013-01-15 02:27:00,51.5,47.7,30.16,NW,315,1.8,4.7,87,0.00,,,0.00,WUHU216HW,2013-01-15 07:27:00,
2013-01-15 02:32:00,51.3,47.8,30.15,ENE,68,2.7,4.3,88,0.00,,,0.00,WUHU216HW,2013-01-15 07:32:00,
2013-01-15 02:37:00,51.1,47.6,30.16,NNW,338,1.1,3.6,88,0.00,,,0.00,WUHU216HW,2013-01-15 07:37:00,
2013-01-15 02:42:00,51.1,47.6,30.16,NNE,23,3.1,3.6,88,0.00,,,0.00,WUHU216HW,2013-01-15 07:42:00,
2013-01-15 02:47:00,50.9,47.2,30.16,ENE,68,1.8,4.7,87,0.00,,,0.00,WUHU216HW,2013-01-15 07:47:00,
2013-01-15 02:52:00,50.8,47.0,30.17,SE,135,1.8,6.3,87,0.00,,,0.00,WUHU216HW,2013-01-15 07:52:00,
2013-01-15 02:57:00,50.6,46.4,30.17,North,0,3.1,6.3,86,0.00,,,0.00,WUHU216HW,2013-01-15 07:57:00,
2013-01-15 03:02:00,50.4,46.3,30.17,NW,315,1.8,3.8,86,0.00,,,0.00,WUHU216HW,2013-01-15 08:02:00,
2013-01-15 03:07:00,50.0,46.3,30.16,NW,315,3.4,3.4,87,0.00,,,0.00,WUHU216HW,2013-01-15 08:07:00,
2013-01-15 03:12:00,50.2,46.1,30.17,NE,45,2.5,3.4,86,0.00,,,0.00,WUHU216HW,2013-01-15 08:12:00,
2013-01-15 03:17:00,50.0,45.9,30.16,NE,45,2.0,4.5,86,0.00,,,0.00,WUHU216HW,2013-01-15 08:17:00,
2013-01-15 03:22:00,49.7,45.6,30.16,NE,45,2.5,4.5,86,0.00,,,0.00,WUHU216HW,2013-01-15 08:22:00,
2013-01-15 03:27:00,49.5,45.5,30.16,NNW,338,3.4,5.1,86,0.00,,,0.00,WUHU216HW,2013-01-15 08:27:00,
2013-01-15 03:32:00,49.3,45.5,30.16,NE,45,1.6,5.1,87,0.00,,,0.00,WUHU216HW,2013-01-15 08:32:00,
2013-01-15 03:37:00,49.3,45.5,30.17,NNE,23,0.2,3.4,87,0.00,,,0.00,WUHU216HW,2013-01-15 08:37:00,
2013-01-15 03:42:00,49.3,45.5,30.16,NNW,338,1.6,2.0,87,0.00,,,0.00,WUHU216HW,2013-01-15 08:42:00,
2013-01-15 03:47:00,49.3,45.5,30.16,ENE,68,1.1,3.8,87,0.00,,,0.00,WUHU216HW,2013-01-15 08:47:00,
2013-01-15 03:52:00,49.3,45.3,30.15,ENE,68,2.0,4.0,86,0.00,,,0.00,WUHU216HW,2013-01-15 08:52:00,
2013-01-15 03:57:00,49.1,45.1,30.15,NNE,23,1.1,4.0,86,0.00,,,0.00,WUHU216HW,2013-01-15 08:57:00,
2013-01-15 04:02:00,49.1,45.1,30.15,ENE,68,2.5,3.4,86,0.00,,,0.00,WUHU216HW,2013-01-15 09:02:00,
2013-01-15 04:07:00,49.0,44.9,30.15,NNE,23,2.7,4.5,86,0.00,,,0.00,WUHU216HW,2013-01-15 09:07:00,
2013-01-15 04:12:00,48.6,44.9,30.16,North,0,1.8,4.5,87,0.00,,,0.00,WUHU216HW,2013-01-15 09:12:00,
2013-01-15 04:17:00,48.6,44.9,30.16,NNE,23,2.2,4.5,87,0.00,,,0.00,WUHU216HW,2013-01-15 09:17:00,
2013-01-15 04:22:00,48.4,44.7,30.16,ESE,113,2.5,5.1,87,0.00,,,0.00,WUHU216HW,2013-01-15 09:22:00,
2013-01-15 04:27:00,48.2,44.6,30.16,NE,45,2.9,5.1,87,0.00,,,0.00,WUHU216HW,2013-01-15 09:27:00,
2013-01-15 04:32:00,48.2,44.6,30.16,ENE,68,1.1,4.5,87,0.00,,,0.00,WUHU216HW,2013-01-15 09:32:00,
2013-01-15 04:37:00,48.2,44.6,30.16,NE,45,1.3,4.5,87,0.00,,,0.00,WUHU216HW,2013-01-15 09:37:00,
2013-01-15 04:42:00,48.2,44.6,30.15,ENE,68,2.2,4.0,87,0.00,,,0.00,WUHU216HW,2013-01-15 09:42:00,
2013-01-15 04:47:00,48.1,44.4,30.15,ENE,68,0.7,4.0,87,0.00,,,0.00,WUHU216HW,2013-01-15 09:47:00,
2013-01-15 04:52:00,48.1,44.4,30.14,East,90,2.5,4.0,87,0.00,,,0.00,WUHU216HW,2013-01-15 09:52:00,
2013-01-15 04:57:00,48.1,44.4,30.14,NNE,23,1.8,3.4,87,0.00,,,0.00,WUHU216HW,2013-01-15 09:57:00,
2013-01-15 05:02:00,48.1,44.4,30.14,ENE,68,0.7,3.4,87,0.00,,,0.00,WUHU216HW,2013-01-15 10:02:00,
2013-01-15 05:07:00,48.1,44.4,30.14,NNE,23,1.8,3.4,87,0.00,,,0.00,WUHU216HW,2013-01-15 10:07:00,
2013-01-15 05:12:00,47.9,44.2,30.14,ENE,68,1.6,3.4,87,0.00,,,0.00,WUHU216HW,2013-01-15 10:12:00,
2013-01-15 05:17:00,47.9,44.2,30.14,ESE,113,1.8,3.1,87,0.00,,,0.00,WUHU216HW,2013-01-15 10:17:00,
2013-01-15 05:22:00,47.9,44.2,30.13,ENE,68,2.5,3.4,87,0.00,,,0.00,WUHU216HW,2013-01-15 10:22:00,
2013-01-15 05:27:00,47.7,44.0,30.14,East,90,1.8,5.4,87,0.00,,,0.00,WUHU216HW,2013-01-15 10:27:00,
2013-01-15 05:32:00,47.5,44.2,30.13,ENE,68,1.1,5.4,88,0.00,,,0.00,WUHU216HW,2013-01-15 10:32:00,
2013-01-15 05:37:00,47.3,44.0,30.13,NE,45,1.3,3.4,88,0.00,,,0.00,WUHU216HW,2013-01-15 10:37:00,
2013-01-15 05:42:00,47.2,43.8,30.13,North,0,2.0,3.4,88,0.00,,,0.00,WUHU216HW,2013-01-15 10:42:00,
2013-01-15 05:47:00,47.2,44.2,30.13,ENE,68,1.6,4.0,89,0.00,,,0.00,WUHU216HW,2013-01-15 10:47:00,
2013-01-15 05:52:00,47.0,43.7,30.13,East,90,1.3,4.0,88,0.00,,,0.00,WUHU216HW,2013-01-15 10:52:00,
2013-01-15 05:57:00,47.0,44.0,30.13,East,90,0.4,3.4,89,0.00,,,0.00,WUHU216HW,2013-01-15 10:57:00,
2013-01-15 06:02:00,47.0,44.0,30.13,NE,45,0.9,2.5,89,0.00,,,0.00,WUHU216HW,2013-01-15 11:02:00,
2013-01-15 06:07:00,46.8,43.8,30.13,ENE,68,1.3,2.5,89,0.00,,,0.00,WUHU216HW,2013-01-15 11:07:00,
2013-01-15 06:12:00,47.0,44.0,30.13,NE,45,1.1,3.6,89,0.00,,,0.00,WUHU216HW,2013-01-15 11:12:00,
2013-01-15 06:17:00,46.8,43.8,30.13,ENE,68,5.1,5.1,89,0.00,,,0.00,WUHU216HW,2013-01-15 11:17:00,
2013-01-15 06:22:00,46.8,43.8,30.13,NE,45,3.4,5.1,89,0.00,,,0.00,WUHU216HW,2013-01-15 11:22:00,
2013-01-15 06:27:00,46.6,43.7,30.13,SE,135,1.8,4.7,89,0.00,,,0.00,WUHU216HW,2013-01-15 11:27:00,
2013-01-15 06:32:00,46.8,43.8,30.13,ENE,68,0.7,3.4,89,0.00,,,0.00,WUHU216HW,2013-01-15 11:32:00,
2013-01-15 06:37:00,47.0,44.3,30.13,ENE,68,2.7,3.8,90,0.00,,,0.00,WUHU216HW,2013-01-15 11:37:00,
2013-01-15 06:42:00,47.0,44.3,30.13,ENE,68,1.3,3.8,90,0.00,,,0.00,WUHU216HW,2013-01-15 11:42:00,
2013-01-15 06:47:00,47.0,44.3,30.13,SE,135,1.3,2.7,90,0.00,,,0.00,WUHU216HW,2013-01-15 11:47:00,
2013-01-15 06:52:00,46.8,44.1,30.13,ENE,68,2.0,4.5,90,0.00,,,0.00,WUHU216HW,2013-01-15 11:52:00,
2013-01-15 06:57:00,47.0,44.0,30.13,ENE,68,1.8,4.5,89,0.00,,,0.00,WUHU216HW,2013-01-15 11:57:00,
2013-01-15 07:02:00,47.0,44.0,30.14,ENE,68,0.7,2.7,89,0.00,,,0.00,WUHU216HW,2013-01-15 12:02:00,
2013-01-15 07:07:00,47.2,44.2,30.14,East,90,2.7,3.1,89,0.00,,,0.00,WUHU216HW,2013-01-15 12:07:00,
2013-01-15 07:12:00,47.2,44.2,30.14,ESE,113,0.0,3.1,89,0.00,,,0.00,WUHU216HW,2013-01-15 12:12:00,
2013-01-15 07:17:00,47.2,44.2,30.14,ENE,68,2.0,2.0,89,0.00,,,0.00,WUHU216HW,2013-01-15 12:17:00,
2013-01-15 07:22:00,47.2,44.2,30.14,ENE,68,1.1,2.0,89,0.00,,,0.00,WUHU216HW,2013-01-15 12:22:00,
2013-01-15 07:27:00,47.2,44.2,30.14,ENE,68,3.1,3.1,89,0.00,,,0.00,WUHU216HW,2013-01-15 12:27:00,
2013-01-15 07:32:00,47.0,44.0,30.15,East,90,2.0,3.1,89,0.00,,,0.00,WUHU216HW,2013-01-15 12:32:00,
2013-01-15 07:37:00,47.0,44.0,30.15,NE,45,4.0,4.3,89,0.00,,,0.00,WUHU216HW,2013-01-15 12:37:00,
2013-01-15 07:42:00,46.8,43.8,30.15,ENE,68,3.6,4.3,89,0.00,,,0.00,WUHU216HW,2013-01-15 12:42:00,
2013-01-15 07:47:00,46.8,43.8,30.15,ESE,113,3.4,4.0,89,0.00,,,0.00,WUHU216HW,2013-01-15 12:47:00,
2013-01-15 07:52:00,46.8,43.8,30.16,NE,45,2.7,4.0,89,0.00,,,0.00,WUHU216HW,2013-01-15 12:52:00,
2013-01-15 07:57:00,46.8,43.8,30.16,ENE,68,1.3,4.7,89,0.00,,,0.00,WUHU216HW,2013-01-15 12:57:00,
2013-01-15 08:02:00,46.8,43.8,30.16,SSE,158,0.4,4.7,89,0.00,,,0.00,WUHU216HW,2013-01-15 13:02:00,
2013-01-15 08:07:00,46.8,43.8,30.16,East,90,2.5,4.7,89,0.00,,,0.00,WUHU216HW,2013-01-15 13:07:00,
2013-01-15 08:12:00,46.6,43.7,30.17,ENE,68,2.2,4.7,89,0.00,,,0.00,WUHU216HW,2013-01-15 13:12:00,
2013-01-15 08:17:00,46.8,43.8,30.17,ENE,68,1.1,3.1,89,0.00,,,0.00,WUHU216HW,2013-01-15 13:17:00,
2013-01-15 08:22:00,46.8,43.8,30.18,ENE,68,2.9,2.9,89,0.00,,,0.00,WUHU216HW,2013-01-15 13:22:00,
2013-01-15 08:27:00,46.8,44.1,30.18,NE,45,1.1,2.9,90,0.00,,,0.00,WUHU216HW,2013-01-15 13:27:00,
2013-01-15 08:32:00,46.6,43.9,30.18,NE,45,0.7,2.9,90,0.00,,,0.00,WUHU216HW,2013-01-15 13:32:00,
2013-01-15 08:37:00,46.6,43.9,30.18,ENE,68,1.1,1.8,90,0.00,,,0.00,WUHU216HW,2013-01-15 13:37:00,
2013-01-15 08:42:00,46.6,43.9,30.18,East,90,1.6,2.5,90,0.00,,,0.00,WUHU216HW,2013-01-15 13:42:00,
2013-01-15 08:47:00,46.6,43.9,30.19,NE,45,0.2,2.5,90,0.00,,,0.00,WUHU216HW,2013-01-15 13:47:00,
2013-01-15 08:52:00,46.6,43.9,30.19,ENE,68,2.2,3.4,90,0.00,,,0.00,WUHU216HW,2013-01-15 13:52:00,
2013-01-15 08:57:00,46.4,43.7,30.19,ENE,68,2.5,3.4,90,0.00,,,0.00,WUHU216HW,2013-01-15 13:57:00,
2013-01-15 09:02:00,46.4,43.7,30.20,ENE,68,2.2,2.7,90,0.00,,,0.00,WUHU216HW,2013-01-15 14:02:00,
2013-01-15 09:07:00,46.4,43.7,30.19,NE,45,0.9,2.7,90,0.00,,,0.00,WUHU216HW,2013-01-15 14:07:00,
2013-01-15 09:12:00,46.4,43.7,30.19,NE,45,0.7,2.5,90,0.00,,,0.00,WUHU216HW,2013-01-15 14:12:00,
2013-01-15 09:17:00,46.3,43.6,30.20,ENE,68,1.1,2.7,90,0.00,,,0.00,WUHU216HW,2013-01-15 14:17:00,
2013-01-15 09:22:00,46.3,43.6,30.20,NNE,23,1.1,2.7,90,0.00,,,0.00,WUHU216HW,2013-01-15 14:22:00,
2013-01-15 09:27:00,46.3,43.6,30.19,ENE,68,0.0,2.2,90,0.00,,,0.00,WUHU216HW,2013-01-15 14:27:00,
2013-01-15 09:32:00,46.3,43.6,30.19,NNE,23,0.4,1.8,90,0.00,,,0.00,WUHU216HW,2013-01-15 14:32:00,
2013-01-15 09:37:00,46.4,43.7,30.20,NE,45,1.8,1.8,90,0.00,,,0.00,WUHU216HW,2013-01-15 14:37:00,
2013-01-15 09:42:00,46.3,43.6,30.20,ENE,68,1.1,2.5,90,0.00,,,0.00,WUHU216HW,2013-01-15 14:42:00,
2013-01-15 09:47:00,46.3,43.6,30.21,North,0,0.2,2.5,90,0.00,,,0.00,WUHU216HW,2013-01-15 14:47:00,
2013-01-15 09:52:00,46.1,43.4,30.21,NE,45,1.3,1.8,90,0.00,,,0.00,WUHU216HW,2013-01-15 14:52:00,
2013-01-15 09:57:00,45.9,43.2,30.21,NE,45,1.3,1.8,90,0.00,,,0.00,WUHU216HW,2013-01-15 14:57:00,
2013-01-15 10:02:00,46.1,43.4,30.21,NW,315,1.1,2.0,90,0.00,,,0.00,WUHU216HW,2013-01-15 15:02:00,
2013-01-15 10:07:00,45.9,43.5,30.21,North,0,1.1,3.4,91,0.00,,,0.00,WUHU216HW,2013-01-15 15:07:00,
2013-01-15 10:12:00,45.9,43.5,30.21,East,90,0.9,3.4,91,0.00,,,0.00,WUHU216HW,2013-01-15 15:12:00,
2013-01-15 10:17:00,46.1,43.7,30.21,North,0,0.7,2.2,91,0.00,,,0.00,WUHU216HW,2013-01-15 15:17:00,
2013-01-15 10:22:00,46.3,43.8,30.20,NE,45,0.7,2.5,91,0.00,,,0.00,WUHU216HW,2013-01-15 15:22:00,
2013-01-15 10:27:00,46.1,43.4,30.20,East,90,1.6,2.5,90,0.00,,,0.00,WUHU216HW,2013-01-15 15:27:00,
2013-01-15 10:32:00,46.1,43.7,30.20,NE,45,1.6,2.0,91,0.00,,,0.00,WUHU216HW,2013-01-15 15:32:00,
2013-01-15 10:37:00,46.1,43.7,30.20,ENE,68,0.2,1.8,91,0.00,,,0.00,WUHU216HW,2013-01-15 15:37:00,
2013-01-15 10:42:00,46.1,43.7,30.20,North,0,1.8,3.4,91,0.00,,,0.00,WUHU216HW,2013-01-15 15:42:00,
2013-01-15 10:47:00,46.1,43.7,30.20,North,0,1.8,3.4,91,0.00,,,0.00,WUHU216HW,2013-01-15 15:47:00,
2013-01-15 10:52:00,46.1,43.7,30.20,North,0,2.0,3.4,91,0.00,,,0.00,WUHU216HW,2013-01-15 15:52:00,
2013-01-15 10:57:00,46.1,43.4,30.20,ENE,68,2.2,3.8,90,0.00,,,0.00,WUHU216HW,2013-01-15 15:57:00,
2013-01-15 11:02:00,46.1,43.4,30.20,East,90,2.5,3.8,90,0.00,,,0.00,WUHU216HW,2013-01-15 16:02:00,
2013-01-15 11:07:00,45.9,43.2,30.20,NNE,23,2.2,2.9,90,0.00,,,0.00,WUHU216HW,2013-01-15 16:07:00,
2013-01-15 11:12:00,46.1,43.4,30.20,NNE,23,0.4,2.9,90,0.00,,,0.00,WUHU216HW,2013-01-15 16:12:00,
2013-01-15 11:17:00,46.1,43.4,30.20,North,0,1.1,3.6,90,0.00,,,0.00,WUHU216HW,2013-01-15 16:17:00,
2013-01-15 11:22:00,46.1,43.4,30.19,NNE,23,0.4,3.6,90,0.00,,,0.00,WUHU216HW,2013-01-15 16:22:00,
2013-01-15 11:27:00,46.3,43.6,30.19,East,90,1.8,2.9,90,0.00,,,0.00,WUHU216HW,2013-01-15 16:27:00,
2013-01-15 11:32:00,46.4,43.5,30.19,NE,45,1.1,3.6,89,0.00,,,0.00,WUHU216HW,2013-01-15 16:32:00,
2013-01-15 11:37:00,46.3,43.6,30.19,North,0,0.7,3.6,90,0.00,,,0.00,WUHU216HW,2013-01-15 16:37:00,
2013-01-15 11:42:00,46.4,43.7,30.19,NNE,23,2.0,2.5,90,0.00,,,0.00,WUHU216HW,2013-01-15 16:42:00,
2013-01-15 11:47:00,46.4,43.7,30.18,NNE,23,1.3,2.5,90,0.00,,,0.00,WUHU216HW,2013-01-15 16:47:00,
2013-01-15 11:52:00,46.4,43.7,30.18,NE,45,3.4,3.4,90,0.00,,,0.00,WUHU216HW,2013-01-15 16:52:00,
2013-01-15 11:57:00,46.4,43.5,30.18,NNE,23,1.1,5.8,89,0.00,,,0.00,WUHU216HW,2013-01-15 16:57:00,
2013-01-15 12:02:00,46.4,43.5,30.18,NNE,23,1.1,5.8,89,0.00,,,0.00,WUHU216HW,2013-01-15 17:02:00,
2013-01-15 12:07:00,46.6,43.9,30.18,NE,45,0.9,2.5,90,0.00,,,0.00,WUHU216HW,2013-01-15 17:07:00,
2013-01-15 12:12:00,46.6,43.7,30.18,ENE,68,2.2,3.1,89,0.00,,,0.00,WUHU216HW,2013-01-15 17:12:00,
2013-01-15 12:17:00,46.6,43.7,30.17,East,90,1.8,3.1,89,0.00,,,0.00,WUHU216HW,2013-01-15 17:17:00,
2013-01-15 12:22:00,46.6,43.7,30.17,NNE,23,1.3,4.0,89,0.00,,,0.00,WUHU216HW,2013-01-15 17:22:00,
2013-01-15 12:27:00,46.6,43.7,30.17,North,0,1.1,4.0,89,0.00,,,0.00,WUHU216HW,2013-01-15 17:27:00,
2013-01-15 12:32:00,46.6,43.7,30.17,ESE,113,3.1,4.0,89,0.00,,,0.00,WUHU216HW,2013-01-15 17:32:00,
2013-01-15 12:37:00,46.8,43.8,30.16,NE,45,3.4,4.0,89,0.00,,,0.00,WUHU216HW,2013-01-15 17:37:00,
2013-01-15 12:42:00,46.6,43.7,30.16,ENE,68,1.8,4.0,89,0.00,,,0.00,WUHU216HW,2013-01-15 17:42:00,
2013-01-15 12:47:00,46.8,43.8,30.16,ENE,68,1.8,4.0,89,0.00,,,0.00,WUHU216HW,2013-01-15 17:47:00,
2013-01-15 12:52:00,46.8,43.8,30.16,NE,45,1.8,3.4,89,0.00,,,0.00,WUHU216HW,2013-01-15 17:52:00,
2013-01-15 12:57:00,47.0,44.0,30.16,NE,45,2.5,3.4,89,0.00,,,0.00,WUHU216HW,2013-01-15 17:57:00,
2013-01-15 13:02:00,47.0,44.0,30.15,NE,45,1.8,5.4,89,0.00,,,0.00,WUHU216HW,2013-01-15 18:02:00,
2013-01-15 13:07:00,47.0,44.0,30.15,NE,45,1.8,5.4,89,0.00,,,0.00,WUHU216HW,2013-01-15 18:07:00,
2013-01-15 13:12:00,47.2,44.2,30.15,NNE,23,0.9,4.0,89,0.00,,,0.00,WUHU216HW,2013-01-15 18:12:00,
2013-01-15 13:17:00,47.2,44.2,30.15,NNE,23,4.7,5.1,89,0.00,,,0.00,WUHU216HW,2013-01-15 18:17:00,
2013-01-15 13:22:00,47.2,44.2,30.15,NNE,23,0.9,5.1,89,0.00,,,0.00,WUHU216HW,2013-01-15 18:22:00,
2013-01-15 13:27:00,47.2,44.2,30.14,East,90,0.7,4.7,89,0.00,,,0.00,WUHU216HW,2013-01-15 18:27:00,
2013-01-15 13:32:00,47.2,44.2,30.14,East,90,1.8,4.0,89,0.00,,,0.00,WUHU216HW,2013-01-15 18:32:00,
2013-01-15 13:37:00,47.3,44.4,30.14,ENE,68,3.4,3.4,89,0.00,,,0.00,WUHU216HW,2013-01-15 18:37:00,
2013-01-15 13:42:00,47.5,44.5,30.14,ESE,113,0.7,4.3,89,0.00,,,0.00,WUHU216HW,2013-01-15 18:42:00,
2013-01-15 13:47:00,47.5,44.5,30.14,East,90,0.7,4.3,89,0.00,,,0.00,WUHU216HW,2013-01-15 18:47:00,
2013-01-15 13:52:00,47.3,44.4,30.13,ENE,68,0.9,4.9,89,0.00,,,0.00,WUHU216HW,2013-01-15 18:52:00,
2013-01-15 13:57:00,47.5,44.5,30.13,ENE,68,1.8,4.9,89,0.00,,,0.00,WUHU216HW,2013-01-15 18:57:00,
2013-01-15 14:02:00,47.5,44.5,30.14,ENE,68,2.0,3.4,89,0.00,,,0.00,WUHU216HW,2013-01-15 19:02:00,
2013-01-15 14:07:00,47.7,44.6,30.14,NNE,23,1.1,3.4,89,0.00,,,0.00,WUHU216HW,2013-01-15 19:07:00,
2013-01-15 14:12:00,47.7,44.6,30.14,NNE,23,0.2,3.4,89,0.00,,,0.00,WUHU216HW,2013-01-15 19:12:00,
2013-01-15 14:17:00,47.7,44.6,30.14,ENE,68,1.6,3.4,89,0.00,,,0.00,WUHU216HW,2013-01-15 19:17:00,
2013-01-15 14:22:00,47.7,44.6,30.13,ENE,68,1.3,2.9,89,0.00,,,0.00,WUHU216HW,2013-01-15 19:22:00,
2013-01-15 14:27:00,47.7,44.6,30.14,ENE,68,3.4,3.4,89,0.00,,,0.00,WUHU216HW,2013-01-15 19:27:00,
2013-01-15 14:32:00,47.5,44.5,30.13,ENE,68,0.4,4.9,89,0.00,,,0.00,WUHU216HW,2013-01-15 19:32:00,
2013-01-15 14:37:00,47.5,44.5,30.13,ENE,68,1.3,4.9,89,0.00,,,0.00,WUHU216HW,2013-01-15 19:37:00,
2013-01-15 14:42:00,47.7,44.6,30.14,ENE,68,1.8,3.6,89,0.00,,,0.00,WUHU216HW,2013-01-15 19:42:00,
2013-01-15 14:47:00,47.5,44.5,30.14,NE,45,1.1,3.6,89,0.00,,,0.00,WUHU216HW,2013-01-15 19:47:00,
2013-01-15 14:52:00,47.5,44.5,30.14,ENE,68,1.6,4.7,89,0.00,,,0.00,WUHU216HW,2013-01-15 19:52:00,
2013-01-15 14:57:00,47.5,44.5,30.13,NNE,23,0.7,4.7,89,0.00,,,0.00,WUHU216HW,2013-01-15 19:57:00,
2013-01-15 15:02:00,47.5,44.5,30.13,ENE,68,1.1,4.0,89,0.00,,,0.00,WUHU216HW,2013-01-15 20:02:00,
2013-01-15 15:07:00,47.5,44.5,30.13,NE,45,2.5,3.6,89,0.00,,,0.00,WUHU216HW,2013-01-15 20:07:00,
2013-01-15 15:12:00,47.3,44.4,30.13,North,0,0.4,3.8,89,0.00,,,0.00,WUHU216HW,2013-01-15 20:12:00,
2013-01-15 15:17:00,47.2,44.2,30.14,NNE,23,0.4,3.8,89,0.00,,,0.00,WUHU216HW,2013-01-15 20:17:00,
2013-01-15 15:22:00,47.2,44.5,30.14,North,0,1.3,3.8,90,0.00,,,0.00,WUHU216HW,2013-01-15 20:22:00,
2013-01-15 15:27:00,47.0,44.3,30.14,ENE,68,1.3,4.0,90,0.00,,,0.00,WUHU216HW,2013-01-15 20:27:00,
2013-01-15 15:32:00,46.8,44.1,30.14,NE,45,2.2,4.0,90,0.00,,,0.00,WUHU216HW,2013-01-15 20:32:00,
2013-01-15 15:37:00,46.8,44.1,30.14,ENE,68,2.0,3.4,90,0.00,,,0.00,WUHU216HW,2013-01-15 20:37:00,
2013-01-15 15:42:00,46.8,44.1,30.14,ENE,68,2.0,3.1,90,0.00,,,0.00,WUHU216HW,2013-01-15 20:42:00,
2013-01-15 15:47:00,46.8,44.1,30.14,ESE,113,4.0,4.0,90,0.00,,,0.00,WUHU216HW,2013-01-15 20:47:00,
2013-01-15 15:52:00,46.8,44.1,30.14,East,90,1.6,4.3,90,0.00,,,0.00,WUHU216HW,2013-01-15 20:52:00,
2013-01-15 15:57:00,46.8,44.1,30.14,ESE,113,1.8,4.3,90,0.00,,,0.00,WUHU216HW,2013-01-15 20:57:00,
2013-01-15 16:02:00,47.0,44.3,30.14,East,90,4.0,4.0,90,0.00,,,0.00,WUHU216HW,2013-01-15 21:02:00,
2013-01-15 16:07:00,47.0,44.3,30.14,East,90,3.8,4.0,90,0.00,,,0.00,WUHU216HW,2013-01-15 21:07:00,
2013-01-15 16:12:00,46.8,44.1,30.15,East,90,1.1,4.0,90,0.00,,,0.00,WUHU216HW,2013-01-15 21:12:00,
2013-01-15 16:17:00,46.8,44.1,30.15,ENE,68,2.5,4.0,90,0.00,,,0.00,WUHU216HW,2013-01-15 21:17:00,
2013-01-15 16:22:00,46.8,44.1,30.14,ENE,68,1.1,2.5,90,0.00,,,0.00,WUHU216HW,2013-01-15 21:22:00,
2013-01-15 16:27:00,46.6,43.9,30.15,ENE,68,2.9,4.0,90,0.00,,,0.00,WUHU216HW,2013-01-15 21:27:00,
2013-01-15 16:32:00,46.6,43.9,30.15,ESE,113,0.7,4.0,90,0.00,,,0.00,WUHU216HW,2013-01-15 21:32:00,
2013-01-15 16:37:00,46.4,43.7,30.14,ESE,113,2.9,3.4,90,0.00,,,0.00,WUHU216HW,2013-01-15 21:37:00,
2013-01-15 16:42:00,46.4,43.7,30.15,East,90,1.8,3.1,90,0.00,,,0.00,WUHU216HW,2013-01-15 21:42:00,
2013-01-15 16:47:00,46.6,43.9,30.15,East,90,2.5,3.1,90,0.00,,,0.00,WUHU216HW,2013-01-15 21:47:00,
2013-01-15 16:52:00,46.6,43.9,30.15,East,90,1.1,2.9,90,0.00,,,0.00,WUHU216HW,2013-01-15 21:52:00,
2013-01-15 16:57:00,46.6,43.9,30.15,ENE,68,0.4,2.5,90,0.00,,,0.00,WUHU216HW,2013-01-15 21:57:00,
2013-01-15 17:02:00,46.6,43.9,30.14,ENE,68,2.2,2.2,90,0.00,,,0.00,WUHU216HW,2013-01-15 22:02:00,
2013-01-15 17:07:00,46.6,43.9,30.15,ENE,68,1.3,2.5,90,0.00,,,0.00,WUHU216HW,2013-01-15 22:07:00,
2013-01-15 17:12:00,46.6,43.9,30.14,ENE,68,0.4,2.5,90,0.00,,,0.00,WUHU216HW,2013-01-15 22:12:00,
2013-01-15 17:17:00,46.6,43.9,30.14,ESE,113,1.3,2.0,90,0.00,,,0.00,WUHU216HW,2013-01-15 22:17:00,
2013-01-15 17:22:00,46.6,43.9,30.14,NE,45,1.3,2.0,90,0.00,,,0.00,WUHU216HW,2013-01-15 22:22:00,
2013-01-15 17:27:00,46.6,43.9,30.14,East,90,2.0,2.2,90,0.00,,,0.00,WUHU216HW,2013-01-15 22:27:00,
2013-01-15 17:32:00,46.4,44.0,30.14,ENE,68,3.6,4.0,91,0.00,,,0.00,WUHU216HW,2013-01-15 22:32:00,
2013-01-15 17:37:00,46.4,44.0,30.14,ENE,68,2.5,4.9,91,0.00,,,0.00,WUHU216HW,2013-01-15 22:37:00,
2013-01-15 17:42:00,46.3,43.8,30.14,ENE,68,1.1,4.9,91,0.00,,,0.00,WUHU216HW,2013-01-15 22:42:00,
2013-01-15 17:47:00,46.3,43.8,30.13,ENE,68,2.5,3.6,91,0.00,,,0.00,WUHU216HW,2013-01-15 22:47:00,
2013-01-15 17:52:00,46.3,43.8,30.14,ENE,68,2.7,3.6,91,0.00,,,0.00,WUHU216HW,2013-01-15 22:52:00,
2013-01-15 17:57:00,46.3,43.8,30.14,ENE,68,3.4,4.0,91,0.00,,,0.00,WUHU216HW,2013-01-15 22:57:00,
2013-01-15 18:02:00,46.3,43.8,30.13,ENE,68,2.0,4.0,91,0.00,,,0.00,WUHU216HW,2013-01-15 23:02:00,
2013-01-15 18:07:00,46.1,43.9,30.13,ENE,68,4.0,4.0,92,0.00,,,0.00,WUHU216HW,2013-01-15 23:07:00,
2013-01-15 18:12:00,46.1,43.7,30.13,ENE,68,2.5,4.0,91,0.00,,,0.00,WUHU216HW,2013-01-15 23:12:00,
2013-01-15 18:17:00,46.1,43.7,30.13,ESE,113,1.1,4.0,91,0.00,,,0.00,WUHU216HW,2013-01-15 23:17:00,
2013-01-15 18:22:00,46.1,43.9,30.13,ESE,113,3.1,4.0,92,0.00,,,0.00,WUHU216HW,2013-01-15 23:22:00,
2013-01-15 18:27:00,46.1,43.9,30.13,East,90,1.8,3.4,92,0.00,,,0.00,WUHU216HW,2013-01-15 23:27:00,
2013-01-15 18:32:00,45.9,43.7,30.13,East,90,3.4,4.3,92,0.00,,,0.00,WUHU216HW,2013-01-15 23:32:00,
2013-01-15 18:37:00,45.9,43.7,30.14,East,90,0.7,4.3,92,0.00,,,0.00,WUHU216HW,2013-01-15 23:37:00,
2013-01-15 18:42:00,45.9,43.7,30.14,ESE,113,1.3,4.0,92,0.00,,,0.00,WUHU216HW,2013-01-15 23:42:00,
2013-01-15 18:47:00,45.9,43.7,30.14,NE,45,3.1,3.6,92,0.00,,,0.00,WUHU216HW,2013-01-15 23:47:00,
2013-01-15 18:52:00,45.7,43.6,30.15,East,90,1.8,3.1,92,0.00,,,0.00,WUHU216HW,2013-01-15 23:52:00,
2013-01-15 18:57:00,45.7,43.3,30.14,NE,45,3.4,3.4,91,0.00,,,0.00,WUHU216HW,2013-01-15 23:57:00,
2013-01-15 19:02:00,45.7,43.3,30.14,NE,45,0.7,3.8,91,0.00,,,0.00,WUHU216HW,2013-01-16 00:02:00,
2013-01-15 19:07:00,45.7,43.3,30.14,ENE,68,1.1,3.8,91,0.00,,,0.00,WUHU216HW,2013-01-16 00:07:00,
2013-01-15 19:12:00,45.7,43.3,30.14,East,90,0.7,2.5,91,0.00,,,0.00,WUHU216HW,2013-01-16 00:12:00,
2013-01-15 19:17:00,45.7,43.3,30.14,ENE,68,1.3,2.9,91,0.00,,,0.00,WUHU216HW,2013-01-16 00:17:00,
2013-01-15 19:22:00,45.5,43.1,30.13,ENE,68,1.6,3.4,91,0.00,,,0.00,WUHU216HW,2013-01-16 00:22:00,
2013-01-15 19:27:00,45.5,43.1,30.13,ESE,113,0.0,3.4,91,0.00,,,0.00,WUHU216HW,2013-01-16 00:27:00,
2013-01-15 19:32:00,45.7,43.3,30.13,ESE,113,1.8,2.9,91,0.00,,,0.00,WUHU216HW,2013-01-16 00:32:00,
2013-01-15 19:37:00,45.5,43.1,30.12,East,90,1.6,2.9,91,0.00,,,0.00,WUHU216HW,2013-01-16 00:37:00,
2013-01-15 19:42:00,45.5,43.1,30.13,ENE,68,1.1,2.9,91,0.00,,,0.00,WUHU216HW,2013-01-16 00:42:00,
2013-01-15 19:47:00,45.5,43.1,30.12,ENE,68,1.1,2.2,91,0.00,,,0.00,WUHU216HW,2013-01-16 00:47:00,
2013-01-15 19:52:00,45.5,43.1,30.12,NE,45,1.6,2.7,91,0.00,,,0.00,WUHU216HW,2013-01-16 00:52:00,
2013-01-15 19:57:00,45.5,43.1,30.12,ENE,68,0.4,2.7,91,0.00,,,0.00,WUHU216HW,2013-01-16 00:57:00,
2013-01-15 20:02:00,45.5,43.1,30.12,ENE,68,1.6,2.7,91,0.00,,,0.00,WUHU216HW,2013-01-16 01:02:00,
2013-01-15 20:07:00,45.4,43.2,30.11,East,90,1.1,3.4,92,0.00,,,0.00,WUHU216HW,2013-01-16 01:07:00,
2013-01-15 20:12:00,45.4,42.9,30.11,NE,45,0.4,3.4,91,0.00,,,0.00,WUHU216HW,2013-01-16 01:12:00,
2013-01-15 20:17:00,45.4,42.9,30.11,NE,45,1.1,2.5,91,0.00,,,0.00,WUHU216HW,2013-01-16 01:17:00,
2013-01-15 20:22:00,45.4,42.9,30.12,NE,45,0.4,1.8,91,0.00,,,0.00,WUHU216HW,2013-01-16 01:22:00,
2013-01-15 20:27:00,45.4,42.9,30.11,NE,45,0.4,2.5,91,0.00,,,0.00,WUHU216HW,2013-01-16 01:27:00,
2013-01-15 20:32:00,45.4,42.9,30.11,ESE,113,1.3,2.5,91,0.00,,,0.00,WUHU216HW,2013-01-16 01:32:00,
2013-01-15 20:37:00,45.4,42.9,30.11,ENE,68,0.0,2.5,91,0.00,,,0.00,WUHU216HW,2013-01-16 01:37:00,
2013-01-15 20:42:00,45.4,42.9,30.11,East,90,1.1,1.1,91,0.00,,,0.00,WUHU216HW,2013-01-16 01:42:00,
2013-01-15 20:47:00,45.4,42.9,30.11,NE,45,0.9,1.1,91,0.00,,,0.00,WUHU216HW,2013-01-16 01:47:00,
2013-01-15 20:52:00,45.4,42.9,30.10,ENE,68,0.4,1.6,91,0.00,,,0.00,WUHU216HW,2013-01-16 01:52:00,
2013-01-15 20:57:00,45.5,43.1,30.10,ENE,68,0.0,1.6,91,0.00,,,0.00,WUHU216HW,2013-01-16 01:57:00,
2013-01-15 21:02:00,45.5,43.1,30.10,ENE,68,0.4,1.6,91,0.00,,,0.00,WUHU216HW,2013-01-16 02:02:00,
2013-01-15 21:07:00,45.5,43.1,30.10,ENE,68,1.1,1.6,91,0.00,,,0.00,WUHU216HW,2013-01-16 02:07:00,
2013-01-15 21:12:00,45.5,43.1,30.10,ENE,68,1.1,2.5,91,0.00,,,0.00,WUHU216HW,2013-01-16 02:12:00,
2013-01-15 21:17:00,45.5,43.1,30.09,ENE,68,0.7,2.5,91,0.00,,,0.00,WUHU216HW,2013-01-16 02:17:00,
2013-01-15 21:22:00,45.4,42.9,30.09,East,90,2.0,2.0,91,0.00,,,0.00,WUHU216HW,2013-01-16 02:22:00,
2013-01-15 21:27:00,45.5,43.1,30.09,East,90,0.7,2.5,91,0.00,,,0.00,WUHU216HW,2013-01-16 02:27:00,
2013-01-15 21:32:00,45.5,43.4,30.08,ENE,68,0.9,2.5,92,0.00,,,0.00,WUHU216HW,2013-01-16 02:32:00,
2013-01-15 21:37:00,45.4,43.2,30.08,ESE,113,1.6,2.5,92,0.00,,,0.00,WUHU216HW,2013-01-16 02:37:00,
2013-01-15 21:42:00,45.4,42.9,30.08,ESE,113,1.3,2.2,91,0.00,,,0.00,WUHU216HW,2013-01-16 02:42:00,
2013-01-15 21:47:00,45.5,43.1,30.08,East,90,1.1,1.8,91,0.00,,,0.00,WUHU216HW,2013-01-16 02:47:00,
2013-01-15 21:52:00,45.5,43.1,30.07,East,90,1.1,1.8,91,0.00,,,0.00,WUHU216HW,2013-01-16 02:52:00,
2013-01-15 21:57:00,45.7,43.3,30.07,ENE,68,2.0,2.7,91,0.00,,,0.00,WUHU216HW,2013-01-16 02:57:00,
2013-01-15 22:02:00,45.5,43.1,30.07,SW,225,0.7,2.7,91,0.00,,,0.00,WUHU216HW,2013-01-16 03:02:00,
2013-01-15 22:07:00,45.7,43.3,30.07,SW,225,0.0,2.5,91,0.00,,,0.00,WUHU216HW,2013-01-16 03:07:00,
2013-01-15 22:12:00,45.7,43.3,30.07,East,90,0.2,0.9,91,0.00,,,0.00,WUHU216HW,2013-01-16 03:12:00,
2013-01-15 22:17:00,45.7,43.3,30.07,NNE,23,1.1,1.8,91,0.00,,,0.00,WUHU216HW,2013-01-16 03:17:00,
2013-01-15 22:22:00,45.7,43.3,30.07,NE,45,0.0,1.8,91,0.00,,,0.00,WUHU216HW,2013-01-16 03:22:00,
2013-01-15 22:27:00,45.7,43.3,30.07,NE,45,1.3,1.3,91,0.00,,,0.00,WUHU216HW,2013-01-16 03:27:00,
2013-01-15 22:32:00,45.7,43.3,30.07,NW,315,0.9,1.3,91,0.00,,,0.00,WUHU216HW,2013-01-16 03:32:00,
2013-01-15 22:37:00,45.9,43.7,30.07,NNW,338,0.2,1.1,92,0.00,,,0.00,WUHU216HW,2013-01-16 03:37:00,
2013-01-15 22:42:00,45.9,43.7,30.07,North,0,0.4,1.1,92,0.00,,,0.00,WUHU216HW,2013-01-16 03:42:00,
2013-01-15 22:47:00,45.7,43.3,30.07,NNE,23,0.0,0.9,91,0.00,,,0.00,WUHU216HW,2013-01-16 03:47:00,
2013-01-15 22:52:00,45.9,43.7,30.06,NNE,23,0.0,0.9,92,0.00,,,0.00,WUHU216HW,2013-01-16 03:52:00,
2013-01-15 22:57:00,45.9,43.7,30.06,ESE,113,0.9,0.9,92,0.00,,,0.00,WUHU216HW,2013-01-16 03:57:00,
2013-01-15 23:02:00,45.9,43.7,30.06,SE,135,0.4,0.9,92,0.00,,,0.00,WUHU216HW,2013-01-16 04:02:00,
2013-01-15 23:07:00,45.9,43.7,30.06,ESE,113,0.0,1.1,92,0.00,,,0.00,WUHU216HW,2013-01-16 04:07:00,
2013-01-15 23:12:00,46.1,43.9,30.06,ESE,113,1.1,1.1,92,0.00,,,0.00,WUHU216HW,2013-01-16 04:12:00,
2013-01-15 23:17:00,45.9,43.7,30.04,East,90,4.0,4.0,92,0.00,,,0.00,WUHU216HW,2013-01-16 04:17:00,
2013-01-15 23:22:00,45.9,43.7,30.04,East,90,1.1,4.0,92,0.00,,,0.00,WUHU216HW,2013-01-16 04:22:00,
2013-01-15 23:27:00,46.1,43.9,30.05,WNW,293,1.3,4.0,92,0.00,,,0.00,WUHU216HW,2013-01-16 04:27:00,
2013-01-15 23:32:00,46.1,43.9,30.05,NNE,23,0.0,2.7,92,0.00,,,0.00,WUHU216HW,2013-01-16 04:32:00,
2013-01-15 23:37:00,46.1,43.9,30.04,ENE,68,0.9,1.3,92,0.00,,,0.00,WUHU216HW,2013-01-16 04:37:00,
2013-01-15 23:42:00,46.1,43.9,30.03,East,90,1.3,1.8,92,0.00,,,0.00,WUHU216HW,2013-01-16 04:42:00,
2013-01-15 23:47:00,46.1,43.9,30.03,SE,135,0.9,3.4,92,0.00,,,0.00,WUHU216HW,2013-01-16 04:47:00,
2013-01-15 23:52:00,46.1,43.9,30.03,SE,135,0.2,3.4,92,0.00,,,0.00,WUHU216HW,2013-01-16 04:52:00,
2013-01-15 23:57:00,46.1,43.9,30.03,ESE,113,0.2,1.6,92,0.00,,,0.00,WUHU216HW,2013-01-16 04:57:00,